| time (UTC) | temp C | wind direction | speed KPH | gust KPH | rain 1hr cm | rain 24hr cm | rain mn cm | humidity % | barometer mb |
| 20260502231542 | 14 | 261 | 1.6 | 6.4 | 0.00 | 0.00 | 0.00 | 54 | 1013.6 |
| 20260502230042 | 14 | 250 | 1.6 | 4.8 | 0.00 | 0.00 | 0.00 | 56 | 1013.6 |
| 20260502224538 | 14 | 283 | 1.6 | 8.0 | 0.00 | 0.00 | 0.00 | 58 | 1013.6 |
| 20260502221534 | 15 | 259 | 3.2 | 8.0 | 0.00 | 0.00 | 0.00 | 60 | 1013.6 |
| 20260502220035 | 15 | 274 | 4.8 | 14.5 | 0.00 | 0.00 | 0.00 | 61 | 1013.5 |
| 20260502214532 | 15 | 269 | 3.2 | 6.4 | 0.00 | 0.00 | 0.00 | 61 | 1013.5 |
| 20260502211532 | 15 | 262 | 4.8 | 8.0 | 0.00 | 0.00 | 0.00 | 60 | 1013.5 |
| 20260502210031 | 16 | 262 | 3.2 | 9.7 | 0.00 | 0.00 | 0.00 | 59 | 1013.6 |
| 20260502204535 | 16 | 253 | 4.8 | 6.4 | 0.00 | 0.00 | 0.00 | 58 | 1013.6 |
| 20260502201531 | 16 | 276 | 3.2 | 11.3 | 0.00 | 0.00 | 0.00 | 56 | 1013.7 |
| 20260502200054 | 17 | 299 | 1.6 | 6.4 | 0.00 | 0.00 | 0.00 | 54 | 1013.8 |
| 20260502194530 | 17 | 279 | 0.0 | 1.6 | 0.00 | 0.00 | 0.00 | 54 | 1013.6 |
| 20260502191530 | 17 | 279 | 1.6 | 3.2 | 0.00 | 0.00 | 0.00 | 54 | 1013.6 |
| 20260502190028 | 17 | 279 | 0.0 | 4.8 | 0.00 | 0.00 | 0.00 | 53 | 1013.5 |
| 20260502184528 | 17 | 279 | 0.0 | 3.2 | 0.00 | 0.00 | 0.00 | 54 | 1013.4 |
| 20260502181529 | 17 | 278 | 1.6 | 4.8 | 0.00 | 0.00 | 0.00 | 54 | 1013.4 |
| 20260502161522 | 21 | 12 | 1.6 | 8.0 | 0.00 | 0.00 | 0.00 | 45 | 1013.8 |
| 20260502151517 | 22 | 35 | 4.8 | 9.7 | 0.00 | 0.00 | 0.00 | 42 | 1014.4 |
| 20260502130105 | 21 | 88 | 6.4 | 9.7 | 0.00 | 0.00 | 0.00 | 46 | 1016.4 |
| 20260502121558 | 20 | 119 | 4.8 | 8.0 | 0.00 | 0.00 | 0.00 | 51 | 1016.9 |
| 20260502120105 | 20 | 102 | 4.8 | 9.7 | 0.00 | 0.00 | 0.00 | 54 | 1017.1 |
| 20260502114543 | 19 | 67 | 6.4 | 14.5 | 0.00 | 0.00 | 0.00 | 52 | 1017.4 |
| 20260502111545 | 19 | 56 | 8.0 | 16.1 | 0.00 | 0.00 | 0.00 | 56 | 1017.9 |
| 20260502110042 | 19 | 80 | 4.8 | 14.5 | 0.00 | 0.00 | 0.00 | 60 | 1018.1 |
| 20260502104537 | 18 | 31 | 4.8 | 9.7 | 0.00 | 0.00 | 0.00 | 59 | 1018.4 |
| 20260502101545 | 18 | 72 | 4.8 | 8.0 | 0.00 | 0.00 | 0.00 | 60 | 1018.7 |
| 20260502091521 | 16 | 86 | 1.6 | 9.7 | 0.00 | 0.00 | 0.00 | 60 | 1019.4 |
| 20260502071514 | 15 | 252 | 4.8 | 12.9 | 0.00 | 0.00 | 0.00 | 59 | 1019.9 |
| 20260502070007 | 15 | 297 | 4.8 | 14.5 | 0.00 | 0.00 | 0.00 | 60 | 1019.9 |
| 20260502064501 | 15 | 258 | 0.0 | 8.0 | 0.00 | 0.00 | 0.00 | 60 | 1019.9 |
| 20260502063159 | 14 | 249 | 0.0 | 8.0 | 0.00 | 0.00 | 0.00 | 61 | 1019.9 |
| 20260502061559 | 14 | 252 | 1.6 | 12.9 | 0.00 | 0.00 | 0.00 | 61 | 1020.0 |
| 20260502060106 | 13 | 275 | 1.6 | 11.3 | 0.00 | 0.00 | 0.00 | 61 | 1020.0 |
| 20260502054610 | 13 | 243 | 1.6 | 11.3 | 0.00 | 0.00 | 0.00 | 61 | 1020.1 |
| 20260502053151 | 13 | 287 | 1.6 | 14.5 | 0.00 | 0.00 | 0.00 | 61 | 1020.0 |
| 20260502051552 | 12 | 293 | 1.6 | 8.0 | 0.00 | 0.00 | 0.00 | 61 | 1020.1 |
| 20260502050052 | 11 | 270 | 0.0 | 6.4 | 0.00 | 0.00 | 0.00 | 61 | 1020.1 |
| 20260502044550 | 11 | 289 | 0.0 | 3.2 | 0.00 | 0.00 | 0.00 | 60 | 1020.2 |
| 20260502043149 | 10 | 260 | 0.0 | 1.6 | 0.00 | 0.00 | 0.00 | 58 | 1020.1 |
| 20260502041548 | 10 | 260 | 0.0 | 1.6 | 0.00 | 0.00 | 0.00 | 57 | 1020.1 |
| 20260502040051 | 10 | 260 | 0.0 | 3.2 | 0.00 | 0.00 | 0.00 | 57 | 1020.0 |
| 20260502034550 | 10 | 260 | 0.0 | 0.0 | 0.00 | 0.00 | 0.00 | 57 | 1020.0 |
| 20260502033148 | 10 | 260 | 0.0 | 0.0 | 0.00 | 0.00 | 0.00 | 56 | 1020.0 |
| 20260502031544 | 10 | 260 | 1.6 | 4.8 | 0.00 | 0.00 | 0.00 | 58 | 1020.0 |
| 20260502030047 | 11 | 260 | 0.0 | 3.2 | 0.00 | 0.00 | 0.00 | 59 | 1020.1 |
| 20260502024543 | 11 | 260 | 0.0 | 1.6 | 0.00 | 0.00 | 0.00 | 61 | 1020.1 |
| 20260502023140 | 11 | 260 | 1.6 | 3.2 | 0.00 | 0.00 | 0.00 | 61 | 1020.2 |
| 20260502021540 | 11 | 287 | 0.0 | 4.8 | 0.00 | 0.00 | 0.00 | 62 | 1020.1 |
| 20260502020040 | 11 | 287 | 0.0 | 0.0 | 0.00 | 0.00 | 0.00 | 62 | 1020.1 |
| 20260502014537 | 11 | 287 | 0.0 | 1.6 | 0.00 | 0.00 | 0.00 | 62 | 1020.2 |
| 20260502013136 | 11 | 287 | 0.0 | 3.2 | 0.00 | 0.00 | 0.00 | 62 | 1020.3 |
| 20260502011537 | 11 | 287 | 0.0 | 0.0 | 0.00 | 0.00 | 0.00 | 62 | 1020.3 |
| 20260502010041 | 11 | 285 | 0.0 | 0.0 | 0.00 | 0.00 | 0.00 | 61 | 1020.3 |
| 20260502004533 | 11 | 283 | 0.0 | 0.0 | 0.00 | 0.00 | 0.00 | 59 | 1020.4 |
| 20260502003130 | 11 | 283 | 0.0 | 3.2 | 0.00 | 0.00 | 0.00 | 58 | 1020.3 |
| 20260502001531 | 12 | 283 | 0.0 | 0.0 | 0.00 | 0.00 | 0.00 | 57 | 1020.5 |
| 20260502000026 | 12 | 283 | 0.0 | 0.0 | 0.00 | 0.00 | 0.00 | 56 | 1020.5 |
| 20260501234523 | 12 | 283 | 0.0 | 3.2 | 0.00 | 0.00 | 0.00 | 55 | 1020.6 |
| 20260501233124 | 12 | 283 | 0.0 | 3.2 | 0.00 | 0.00 | 0.00 | 55 | 1020.5 |